www.pogodaiklimat.ru

Погода и климат >> Архив погоды >> Россия >> Оренбургская область >> Сорочинск


АРХИВ ПОГОДЫ в Сорочинске

Время (UTC), дата Ветер
(напр.,м/с)
 
Видим.   Явления Облачность Т
(С)
Тd
(С)
f
(%)
Тe
(С)
Тes
(С)
Комфортность P
(гПа)
Po
(гПа)
Тmin
(С)
Tmax
(С)
R
(мм)
R24
(мм)
S
(см)
12 18.05 СЗ 5
{14}
50 км 10/6 1000 м
[Cb cap Ac und]
+17.4 +1.4 34 +17 +17 1009.4 994.8
15 18.05 СЗ 3 50 км 10/10 840 м
[Cb cap]
+15.9 +2.7 41 +16 +16 1008.6 993.9 +18.6
18 18.05 СЗ 1 20 км 3/0
[Ac trans]
+10.2 +3.8 64 +10 +10 1009.9 994.9
21 18.05 СЗ 1 20 км 4/0
[Ac trans]
+7.8 +4.1 77 +7 +7 1010.1 995.0
00 19.05 СЗ 2 20 км 8/6 600 м
[Sc Ac trans]
+7.5 -2.1 51 +6 +6 1010.8 995.6
03 19.05 СЗ 2 50 км ясно +8.5 -2.3 47 +7 +10 1011.0 995.9 +7.0
06 19.05 З 3 50 км 6/4 1000 м
[Cu hum Ac trans]
+12.9 -2.7 34 +12 +17 1009.9 995.0
09 19.05 З 5 50 км 10/10 870 м
[Cb cap]
+13.2 +0.2 41 +12 +12 1008.9 994.1
12 19.05 СЗ 3
{13}
50 км 8/8 600 м
[Cb cap]
+13.6 +1.2 43 +13 +14 1009.1 994.3
15 19.05 С 4 50 км 6/6 1500 м
[Sc diur, vesp]
+11.7 -2.7 36 +10 +10 1010.3 995.4 +15.2
18 19.05 С 3 20 км 8/8 1500 м
[Sc diur, vesp]
+9.0 -2.0 46 +7 +7 1012.3 997.2
21 19.05 С 3 20 км 10/6 1500 м
[Sc Ac und]
+7.2 -1.6 54 +5 +5 1013.0 997.8
00 20.05 С 2 20 км 6/0
[Ac As]
+5.2 -0.7 66 +3 +3 1014.1 998.8
03 20.05 С 3 50 км ясно +5.5 +0.4 70 +2 +5 1015.3 1000.0 +3.7
06 20.05 СЗ 3 50 км 8/8 1000 м
[Sc]
+8.6 -1.2 50 +7 +9 1015.9 1000.7
09 20.05 СЗ 4 50 км 6/6 1500 м
[Cu med, cong]
+11.8 -1.9 38 +10 +14 1015.5 1000.5
12 20.05 С 4 50 км 8/8 1500 м
[Cu Sc Ac trans]
+11.0 -1.3 42 +9 +10 1015.6 1000.6
15 20.05 С 3 50 км 10/10 1080 м
[Sc]
+9.3 +0.1 53 +7 +7 1015.8 1000.7 +12.2
18 20.05 СЗ 2 20 км 8/8 1000 м
[Sc]
+6.4 +0.9 68 +4 +4 1017.1 1001.8
21 20.05 З 1 20 км 8/0
[Ac trans]
+3.9 +0.2 77 +3 +3 1017.3 1001.8
00 21.05 СЗ 2 20 км 3/0
[Ac trans]
+2.1 -0.4 84 -1 -1 1017.6 1002.0
03 21.05 СЗ 3 50 км ясно +6.7 +1.4 69 +4 +6 1018.4 1003.1 +1.3
06 21.05 СЗ 4 50 км 8/6 1000 м
[Cu med, cong Ci fib]
+12.9 -0.2 40 +12 +15 1018.6 1003.6
09 21.05 СЗ 5 50 км 8/8 600 м
[Cb cap]
+13.2 -2.7 33 +12 +13 1018.5 1003.5
12 21.05 СЗ 4 50 км 8/8 600 м
[Cb cap]
+14.6 -2.8 30 +14 +15 1018.3 1003.4
15 21.05 СЗ 3 50 км 4/4 1500 м
[Cu med, cong]
+14.7 -2.5 30 +14 +15 1018.1 1003.2 +15.2
18 21.05 ЮЗ 1 20 км 4/0
[Ac trans]
+9.1 -1.8 46 +9 +9 1018.8 1003.6
21 21.05 В 1 20 км ясно +4.2 +0.2 75 +3 +3 1019.2 1003.7
00 22.05 штиль 0 20 км 10/0
[Ac As Ci]
+4.6 +0.2 73 +4 +4 1019.5 1004.1
03 22.05 З 3 50 км 8/0
[Ac As Cc]
+11.4 -0.5 44 +10 +12 1018.7 1003.7 +3.2
06 22.05 З 4 50 км 8/0
[Ac As Ci]
+16.6 +1.0 35 +16 +21 1017.6 1002.8
09 22.05 З 4 50 км 10/3 1500 м
[Cu hum Ac As Ci]
+19.2 -0.8 26 +19 +23 1016.6 1002.0
12 22.05 З 6-11
{11}
50 км в посл. час ливневой дождь 10/6 1000 м
[Cb cap Ac und]
+16.8 +2.9 39 +16 +16 1016.7 1002.0
15 22.05 В 1
{11}
50 км {ливн. осадки} 10/10 900 м
[Cb cap]
+14.8 +5.1 52 +15 +15 1015.0 1000.2 +19.5 0.0
18 22.05 В 1 20 км {ливн. осадки} 10/10 870 м
[Cb cap]
+13.3 +7.4 67 +14 +14 1015.3 1000.4
21 22.05 Ю 2 20 км в посл. час ливневой дождь 10/10 870 м
[Cb cap]
+13.4 +7.7 68 +13 +13 1013.8 998.9
00 23.05 ЮЗ 3 20 км {ливн. осадки} 10/10 1000 м
[Sc]
+12.4 +5.6 63 +11 +11 1012.6 997.7
03 23.05 ЮЗ 4 50 км 6/0
[Ac trans]
+15.9 +6.3 53 +15 +16 1011.7 997.0 +11.9 0.3
06 23.05 ЮЗ 7-12
{13}
50 км 10/6 1000 м
[Cu hum Ci]
+21.2 +3.6 31 +21 +22 комфорт 1010.9 996.5
09 23.05 ЮЗ 6-12
{14}
50 км 10/4 1000 м
[Cu med, cong Ci fib]
+23.9 -1.0 19 +23 +26 комфорт 1009.8 995.4
12 23.05 ЮЗ 7-12
{13}
50 км 6/3 1000 м
[Cu hum Ci fib]
+24.0 +1.0 22 +23 +25 комфорт 1008.2 993.9
15 23.05 ЮЗ 7-11
{13}
50 км 4/0
[Ci fib]
+22.0 +3.1 29 +22 +22 комфорт 1007.1 992.7 +24.7
18 23.05 ЮЗ 3
{12}
20 км 4/0
[Ci fib]
+16.5 +1.4 36 +16 +16 1007.3 992.7
21 23.05 Ю 4 20 км 4/0
[Ci fib]
+13.2 +2.9 50 +12 +12 1006.0 991.2
00 24.05 ЮЗ 4 20 км 8/0
[Ci]
+12.6 +3.1 52 +11 +11 1005.1 990.3
03 24.05 ЮЗ 5 50 км 8/0
[Ac trans Ci]
+16.2 +5.7 50 +15 +17 1004.0 989.4 +12.0
06 24.05 ЮЗ 7-12
{12}
50 км 8/4 1000 м
[Cu hum Ci fib]
+21.2 +8.4 44 +22 +24 комфорт 1002.8 988.5
09 24.05 СЗ 3
{14}
10 км слаб. ливневой дождь 10/10 900 м
[Cb cap]
+15.4 +13.4 88 +15 +15 1004.3 989.7
12 24.05 С 5-11
{11}
50 км {ливн. осадки} 10/10 900 м
[Cu Sc]
+12.5 +9.0 79 +10 +10 1007.0 992.2
15 24.05 С 5
{11}
50 км 8/8 600 м
[Cb cap]
+10.3 +4.1 65 +8 +8 1010.6 995.6 +22.4 2
18 24.05 С 4 20 км ясно +6.6 +0.7 66 +3 +3 1013.7 998.5
21 24.05 С 1 20 км ясно +3.1 -0.3 78 +2 +2 1016.3 1000.8
00 25.05 СЗ 1 20 км ясно +0.9 -1.5 84 -1 -1 1018.4 1002.8
03 25.05 С 1 50 км ясно +6.4 -0.4 62 +6 +9 1020.2 1004.8 +0.1
06 25.05 СВ 4 50 км ясно +10.9 -2.4 39 +9 +17 1020.6 1005.5

 

Местоположение метеостанции Сорочинск (Оренбургская область, Россия): широта 52.43 долгота 53.13 высота над уровнем моря 123 м.

В архиве по умолчанию представлена погода в Сорочинске за последнюю неделю. Архивные данные за месяц целиком и за предыдущие месяцы, начиная с января 2011 года, Вы можете получить, выбрав интересующий диапазон дат из раскрывающегося списка и нажав кнопку "Ввод!".


*Определитесь, кто Вы:
робот инопланетянин человек

Внимание! Время в таблицах - всемирное. Для получения местного времени необходимо прибавить поправку, которая равна 5 ч.

Смотрите также архив погоды в соседних городах и на ближайших метеорологических станциях:

Погода в Новосергиевке (Оренбургская область, Россия) (52 км)
Погода в Бузулуке (Оренбургская область, Россия) (75 км)
Погода в Троицком А (Оренбургская область, Россия) (102 км)
Погода в Илеке (Оренбургская область, Россия) (103 км)
Погода в Первомайском (Оренбургская область, Россия) (117 км)
Погода в Шарлыке (Оренбургская область, Россия) (123 км)
Погода в Авангард Зерносовхозе (Самарская область, Россия) (127 км)
Погода в Аксае (Западно-Казахстанская область, Казахстан) (139 км)
Погода в Бугуруслане (Оренбургская область, Россия) (140 км)
Погода в Абдулино (Оренбургская область, Россия) (140 км)

Пояснения к столбцам:

Ветер - указаны скорость ветра в м/с - средняя за 10 мин, порывы в срок и между сроками (в фигурных скобках) и направление, откуда дует ветер: С - северный, СВ - северо-восточный, В - восточный, ЮВ - юго-восточный, Ю - южный, ЮЗ - юго-западный, З - западный, СЗ - северо-западный.
Видимость - горизонтальная дальность видимости в метрах или километрах. При видимости от 1 до 10 км при отсутствии осадков обычно наблюдается дымка, при ухудшении видимости до 1 км и менее - туман. В сухую погоду видимость может ухудшаться дымом, пылью или мглою.
Явления - указаны атмосферные явления, наблюдавшиеся в срок или в последний час перед сроком; фигурными скобками обозначены явления, наблюдавшиеся между сроками (за 1-3 часа до срока); квадратными скобками обозначены град или гололедные отложения с указанием их диаметра в мм.
Облачность - указаны через наклонную черту общая и нижняя облачность в баллах и высота нижней границы облаков в метрах; квадратными скобками обозначены формы облаков: Ci - перистые, Cs - перисто-слоистые, Cc - перисто-кучевые, Ac - высококучевые, As - высокослоистые, Sc - слоисто-кучевые, Ns - слоисто-дождевые, Cu - кучевые, Cb - кучево-дождевые. Подробнее классификацию облаков см. в Атласе облаков (PDF).
T - Температура воздуха - температура, измеренная на высоте 2 м над землей.
Td - Температура точки росы - температура, при понижении до которой содержащийся в воздухе водяной пар достигнет насыщения.
f - Относительная влажность воздуха - влажноcть воздуха, измеренная на высоте 2 м над землей.
Te - Эффективная температура - температура, которую ощущает одетый по сезону человек в тени. Характеристика душности погоды. При расчете учитывается влияние влажности воздуха и скорости ветра на теплоощущения человека.
Tes - Эффективная температура на солнце - температура, которую ощущает человек, с поправкой на солнечный нагрев. Характеристика знойности погоды. Зависит от высоты солнца над горизонтом, облачности и скорости ветра. Ночью, в пасмурную погоду, а также при ветре 12 м/с и более поправка равна нулю.
P - Атмосферное давление - приведенное к уровню моря атмосферное давление.
Po - Атмосферное давление - измеренное на уровне метеостанции атмосферное давление.
Tmin - Минимальная температура - минимум температуры воздуха на высоте 2 м над землей.
Tmax - Максимальная температура - максимум температуры воздуха на высоте 2 м над землей.
R - Количество осадков - Количество выпавших осадков за период времени, мм. При наведении курсора мыши на число - период времени, за который выпало указанное количество осадков.
R24 - Количество осадков - Количество выпавших осадков за 24 часа, мм.
S - Снежный покров - Высота снежного покрова, см. При наведении курсора мыши на число - состояние снежного покрова и степень покрытия местности в баллах.